This demonstration page uses our WeatherBlox Daily Observations layout. Learn more.

Left ArrowRight Arrow

44.89941, -97.11507

Hourly Observations for November 6, 2020

Temp ( °F °C ) Dew Point ( °F °C ) Humidity (%) Winds ( mph kmh ) Pressure ( in mb ) Visibility ( mi km ) Precip ( " mm )
12:53 am 00:53 Clear 54 12.2 39 3.9 57 57 S 13 20 29.92 1013 10 16 0.00 0.00
1:53 am 01:53 Clear 54 12.2 38 3.3 55 55 S 13 20 29.90 1013 10 16 0.00 0.00
2:53 am 02:53 Clear 53 11.7 38 3.3 57 57 S 12 19 29.89 1012 10 16 0.00 0.00
3:53 am 03:53 Clear 50 10 38 3.3 63 63 S 12 19 29.87 1012 10 16 0.00 0.00
4:53 am 04:53 Clear 49 9.4 38 3.3 66 66 S 10 17 29.87 1011 10 16 0.00 0.00
5:53 am 05:53 Clear 48 8.9 37 2.8 66 66 S 12 19 29.86 1011 10 16 0.00 0.00
6:53 am 06:53 Clear 48 8.9 37 2.8 66 66 S 8 13 29.85 1011 10 16 0.00 0.00
7:53 am 07:53 Sunny 50 10 37 2.8 61 61 S 12 19 29.84 1010 10 16 0.00 0.00
8:53 am 08:53 Sunny 54 12.2 37 2.8 53 53 S 14 22 29.84 1011 10 16 0.00 0.00
9:53 am 09:53 Sunny 60 15.6 37 2.8 42 42 S 12 19 29.82 1010 10 16 0.00 0.00
10:53 am 10:53 Sunny 65 18.3 37 2.8 36 36 S 12 19 29.81 1010 10 16 0.00 0.00
11:53 am 11:53 Sunny 70 21.1 35 1.7 28 28 S 15 24 29.77 1008 10 16 0.00 0.00
12:53 pm 12:53 Sunny 73 22.8 34 1.1 24 24 S 18 30 29.74 1007 10 16 0.00 0.00
1:53 pm 13:53 Sunny 74 23.3 34 1.1 23 23 S 20 31 29.70 1006 10 16 0.00 0.00
2:53 pm 14:53 Sunny 73 22.8 34 1.1 24 24 S 14 22 29.69 1005 10 16 0.00 0.00
3:53 pm 15:53 Sunny 73 22.8 34 1.1 24 24 S 12 19 29.70 1006 10 16 0.00 0.00
4:53 pm 16:53 Sunny 71 21.7 31 -0.6 23 23 S 13 20 29.70 1006 10 16 0.00 0.00
5:53 pm 17:53 Clear 65 18.3 32 0 29 29 S 9 15 29.71 1006 10 16 0.00 0.00
6:53 pm 18:53 Clear 64 17.8 33 0.6 32 32 S 14 22 29.72 1006 10 16 0.00 0.00
7:53 pm 19:53 Clear 64 17.8 34 1.1 33 33 S 15 24 29.71 1006 10 16 0.00 0.00
8:53 pm 20:53 Clear 63 17.2 37 2.8 38 38 S 16 26 29.70 1006 10 16 0.00 0.00
9:53 pm 21:53 Clear 63 17.2 39 3.9 41 41 S 17 28 29.69 1006 10 16 0.00 0.00
10:53 pm 22:53 Clear 61 16.1 40 4.4 46 46 S 16 26 29.70 1006 10 16 0.00 0.00
11:53 pm 23:53 Clear 61 16.1 43 6.1 52 52 S 14 22 29.68 1005 10 16 0.00 0.00

Powered by AerisWeather